#datetime,building,power
2023-09-09T00:00:00,mfh,48.32
2023-09-09T00:01:00,mfh,47.98
2023-09-09T00:02:00,mfh,47.97
2023-09-09T00:03:00,mfh,47.15
2023-09-09T00:04:00,mfh,47.14
2023-09-09T00:05:00,mfh,43.37
2023-09-09T00:06:00,mfh,45.06
2023-09-09T00:07:00,mfh,40.02
2023-09-09T00:08:00,mfh,36.76
2023-09-09T00:09:00,mfh,36.62
2023-09-09T00:10:00,mfh,36.78
2023-09-09T00:11:00,mfh,35.94
2023-09-09T00:12:00,mfh,36.04
2023-09-09T00:13:00,mfh,36.02
2023-09-09T00:14:00,mfh,36.31
2023-09-09T00:15:00,mfh,36.89
2023-09-09T00:16:00,mfh,36.69
2023-09-09T00:17:00,mfh,36.64
2023-09-09T00:18:00,mfh,36.51
2023-09-09T00:19:00,mfh,36.50
2023-09-09T00:20:00,mfh,35.73
2023-09-09T00:21:00,mfh,35.75
2023-09-09T00:22:00,mfh,35.80
2023-09-09T00:23:00,mfh,35.98
2023-09-09T00:24:00,mfh,36.43
2023-09-09T00:25:00,mfh,36.57
2023-09-09T00:26:00,mfh,36.65
2023-09-09T00:27:00,mfh,36.65
2023-09-09T00:28:00,mfh,36.58
2023-09-09T00:29:00,mfh,35.88
2023-09-09T00:30:00,mfh,36.37
2023-09-09T00:31:00,mfh,36.00
2023-09-09T00:32:00,mfh,36.45
2023-09-09T00:33:00,mfh,36.42
2023-09-09T00:34:00,mfh,36.55
2023-09-09T00:35:00,mfh,36.56
2023-09-09T00:36:00,mfh,36.53
2023-09-09T00:37:00,mfh,35.78
2023-09-09T00:38:00,mfh,35.77
2023-09-09T00:39:00,mfh,35.95
2023-09-09T00:40:00,mfh,36.05
2023-09-09T00:41:00,mfh,37.38
2023-09-09T00:42:00,mfh,36.48
2023-09-09T00:43:00,mfh,36.44
2023-09-09T00:44:00,mfh,36.57
2023-09-09T00:45:00,mfh,36.68
2023-09-09T00:46:00,mfh,36.00
2023-09-09T00:47:00,mfh,36.11
2023-09-09T00:48:00,mfh,36.09
2023-09-09T00:49:00,mfh,36.56
2023-09-09T00:50:00,mfh,36.54
2023-09-09T00:51:00,mfh,36.56
2023-09-09T00:52:00,mfh,36.65
2023-09-09T00:53:00,mfh,36.73
2023-09-09T00:54:00,mfh,36.06
2023-09-09T00:55:00,mfh,36.14
2023-09-09T00:56:00,mfh,35.97
2023-09-09T00:57:00,mfh,36.97
2023-09-09T00:58:00,mfh,36.51
2023-09-09T00:59:00,mfh,37.27
2023-09-09T01:00:00,mfh,37.11
2023-09-09T01:01:00,mfh,36.63
2023-09-09T01:02:00,mfh,36.02
2023-09-09T01:03:00,mfh,36.56
2023-09-09T01:04:00,mfh,36.01
2023-09-09T01:05:00,mfh,35.92
2023-09-09T01:06:00,mfh,36.49
2023-09-09T01:07:00,mfh,36.50
2023-09-09T01:08:00,mfh,36.40
2023-09-09T01:09:00,mfh,36.43
2023-09-09T01:10:00,mfh,36.51
2023-09-09T01:11:00,mfh,35.80
2023-09-09T01:12:00,mfh,35.94
2023-09-09T01:13:00,mfh,36.58
2023-09-09T01:14:00,mfh,36.48
2023-09-09T01:15:00,mfh,36.30
2023-09-09T01:16:00,mfh,36.33
2023-09-09T01:17:00,mfh,36.29
2023-09-09T01:18:00,mfh,36.38
2023-09-09T01:19:00,mfh,35.64
2023-09-09T01:20:00,mfh,37.39
2023-09-09T01:21:00,mfh,37.55
2023-09-09T01:22:00,mfh,35.78
2023-09-09T01:23:00,mfh,36.49
2023-09-09T01:24:00,mfh,36.40
2023-09-09T01:25:00,mfh,36.45
2023-09-09T01:26:00,mfh,36.41
2023-09-09T01:27:00,mfh,36.45
2023-09-09T01:28:00,mfh,35.99
2023-09-09T01:29:00,mfh,35.98
2023-09-09T01:30:00,mfh,35.84
2023-09-09T01:31:00,mfh,35.93
2023-09-09T01:32:00,mfh,36.53
2023-09-09T01:33:00,mfh,36.55
2023-09-09T01:34:00,mfh,36.60
2023-09-09T01:35:00,mfh,36.55
2023-09-09T01:36:00,mfh,36.62
2023-09-09T01:37:00,mfh,36.14
2023-09-09T01:38:00,mfh,35.96
2023-09-09T01:39:00,mfh,35.97
2023-09-09T01:40:00,mfh,36.93
2023-09-09T01:41:00,mfh,36.58
2023-09-09T01:42:00,mfh,36.55
2023-09-09T01:43:00,mfh,36.47
2023-09-09T01:44:00,mfh,36.51
2023-09-09T01:45:00,mfh,35.97
2023-09-09T01:46:00,mfh,35.95
2023-09-09T01:47:00,mfh,35.91
2023-09-09T01:48:00,mfh,36.35
2023-09-09T01:49:00,mfh,36.46
2023-09-09T01:50:00,mfh,36.49
2023-09-09T01:51:00,mfh,36.50
2023-09-09T01:52:00,mfh,36.63
2023-09-09T01:53:00,mfh,36.15
2023-09-09T01:54:00,mfh,36.04
2023-09-09T01:55:00,mfh,35.85
2023-09-09T01:56:00,mfh,36.28
2023-09-09T01:57:00,mfh,36.41
2023-09-09T01:58:00,mfh,37.53
2023-09-09T01:59:00,mfh,36.56
2023-09-09T02:00:00,mfh,36.60
2023-09-09T02:01:00,mfh,37.47
2023-09-09T02:02:00,mfh,36.59
2023-09-09T02:03:00,mfh,35.82
2023-09-09T02:04:00,mfh,35.87
2023-09-09T02:05:00,mfh,36.13
2023-09-09T02:06:00,mfh,36.34
2023-09-09T02:07:00,mfh,36.37
2023-09-09T02:08:00,mfh,36.37
2023-09-09T02:09:00,mfh,36.42
2023-09-09T02:10:00,mfh,36.66
2023-09-09T02:11:00,mfh,36.18
2023-09-09T02:12:00,mfh,35.86
2023-09-09T02:13:00,mfh,35.84
2023-09-09T02:14:00,mfh,36.11
2023-09-09T02:15:00,mfh,36.33
2023-09-09T02:16:00,mfh,36.35
2023-09-09T02:17:00,mfh,36.33
2023-09-09T02:18:00,mfh,36.64
2023-09-09T02:19:00,mfh,35.79
2023-09-09T02:20:00,mfh,35.81
2023-09-09T02:21:00,mfh,35.57
2023-09-09T02:22:00,mfh,36.32
2023-09-09T02:23:00,mfh,36.59
2023-09-09T02:24:00,mfh,37.05
2023-09-09T02:25:00,mfh,36.80
2023-09-09T02:26:00,mfh,37.05
2023-09-09T02:27:00,mfh,36.81
2023-09-09T02:28:00,mfh,36.09
2023-09-09T02:29:00,mfh,36.02
2023-09-09T02:30:00,mfh,35.88
2023-09-09T02:31:00,mfh,36.57
2023-09-09T02:32:00,mfh,36.60
2023-09-09T02:33:00,mfh,36.71
2023-09-09T02:34:00,mfh,36.61
2023-09-09T02:35:00,mfh,38.41
2023-09-09T02:36:00,mfh,38.52
2023-09-09T02:37:00,mfh,36.12
2023-09-09T02:38:00,mfh,36.21
2023-09-09T02:39:00,mfh,36.08
2023-09-09T02:40:00,mfh,36.61
2023-09-09T02:41:00,mfh,36.71
2023-09-09T02:42:00,mfh,36.69
2023-09-09T02:43:00,mfh,36.72
2023-09-09T02:44:00,mfh,36.72
2023-09-09T02:45:00,mfh,35.91
2023-09-09T02:46:00,mfh,35.78
2023-09-09T02:47:00,mfh,35.80
2023-09-09T02:48:00,mfh,35.79
2023-09-09T02:49:00,mfh,36.41
2023-09-09T02:50:00,mfh,36.69
2023-09-09T02:51:00,mfh,36.80
2023-09-09T02:52:00,mfh,36.80
2023-09-09T02:53:00,mfh,36.41
2023-09-09T02:54:00,mfh,35.66
2023-09-09T02:55:00,mfh,35.69
2023-09-09T02:56:00,mfh,35.70
2023-09-09T02:57:00,mfh,37.94
2023-09-09T02:58:00,mfh,36.46
2023-09-09T02:59:00,mfh,36.56
2023-09-09T03:00:00,mfh,36.73
2023-09-09T03:01:00,mfh,36.58
2023-09-09T03:02:00,mfh,36.05
2023-09-09T03:03:00,mfh,35.98
2023-09-09T03:04:00,mfh,36.05
2023-09-09T03:05:00,mfh,36.54
2023-09-09T03:06:00,mfh,36.73
2023-09-09T03:07:00,mfh,36.41
2023-09-09T03:08:00,mfh,36.72
2023-09-09T03:09:00,mfh,36.72
2023-09-09T03:10:00,mfh,35.90
2023-09-09T03:11:00,mfh,35.97
2023-09-09T03:12:00,mfh,35.88
2023-09-09T03:13:00,mfh,35.88
2023-09-09T03:14:00,mfh,36.50
2023-09-09T03:15:00,mfh,36.51
2023-09-09T03:16:00,mfh,37.51
2023-09-09T03:17:00,mfh,36.78
2023-09-09T03:18:00,mfh,36.46
2023-09-09T03:19:00,mfh,35.83
2023-09-09T03:20:00,mfh,35.82
2023-09-09T03:21:00,mfh,35.87
2023-09-09T03:22:00,mfh,36.80
2023-09-09T03:23:00,mfh,36.52
2023-09-09T03:24:00,mfh,36.47
2023-09-09T03:25:00,mfh,36.73
2023-09-09T03:26:00,mfh,36.73
2023-09-09T03:27:00,mfh,35.88
2023-09-09T03:28:00,mfh,35.97
2023-09-09T03:29:00,mfh,36.07
2023-09-09T03:30:00,mfh,36.02
2023-09-09T03:31:00,mfh,37.13
2023-09-09T03:32:00,mfh,36.47
2023-09-09T03:33:00,mfh,36.67
2023-09-09T03:34:00,mfh,37.30
2023-09-09T03:35:00,mfh,37.34
2023-09-09T03:36:00,mfh,37.33
2023-09-09T03:37:00,mfh,37.31
2023-09-09T03:38:00,mfh,36.67
2023-09-09T03:39:00,mfh,36.79
2023-09-09T03:40:00,mfh,36.46
2023-09-09T03:41:00,mfh,37.19
2023-09-09T03:42:00,mfh,36.75
2023-09-09T03:43:00,mfh,36.86
2023-09-09T03:44:00,mfh,36.68
2023-09-09T03:45:00,mfh,35.95
2023-09-09T03:46:00,mfh,35.90
2023-09-09T03:47:00,mfh,35.93
2023-09-09T03:48:00,mfh,36.67
2023-09-09T03:49:00,mfh,36.74
2023-09-09T03:50:00,mfh,36.78
2023-09-09T03:51:00,mfh,36.77
2023-09-09T03:52:00,mfh,38.22
2023-09-09T03:53:00,mfh,35.94
2023-09-09T03:54:00,mfh,35.93
2023-09-09T03:55:00,mfh,35.84
2023-09-09T03:56:00,mfh,35.97
2023-09-09T03:57:00,mfh,36.64
2023-09-09T03:58:00,mfh,36.77
2023-09-09T03:59:00,mfh,36.58
2023-09-09T04:00:00,mfh,36.46
2023-09-09T04:01:00,mfh,36.46
2023-09-09T04:02:00,mfh,36.91
2023-09-09T04:03:00,mfh,35.96
2023-09-09T04:04:00,mfh,36.30
2023-09-09T04:05:00,mfh,36.73
2023-09-09T04:06:00,mfh,37.07
2023-09-09T04:07:00,mfh,36.76
2023-09-09T04:08:00,mfh,36.73
2023-09-09T04:09:00,mfh,36.60
2023-09-09T04:10:00,mfh,36.49
2023-09-09T04:11:00,mfh,35.99
2023-09-09T04:12:00,mfh,35.98
2023-09-09T04:13:00,mfh,36.18
2023-09-09T04:14:00,mfh,36.61
2023-09-09T04:15:00,mfh,36.93
2023-09-09T04:16:00,mfh,36.78
2023-09-09T04:17:00,mfh,36.60
2023-09-09T04:18:00,mfh,36.70
2023-09-09T04:19:00,mfh,35.92
2023-09-09T04:20:00,mfh,35.91
2023-09-09T04:21:00,mfh,35.83
2023-09-09T04:22:00,mfh,36.52
2023-09-09T04:23:00,mfh,36.53
2023-09-09T04:24:00,mfh,36.87
2023-09-09T04:25:00,mfh,36.94
2023-09-09T04:26:00,mfh,36.69
2023-09-09T04:27:00,mfh,36.11
2023-09-09T04:28:00,mfh,35.93
2023-09-09T04:29:00,mfh,35.91
2023-09-09T04:30:00,mfh,36.53
2023-09-09T04:31:00,mfh,36.51
2023-09-09T04:32:00,mfh,36.70
2023-09-09T04:33:00,mfh,36.67
2023-09-09T04:34:00,mfh,36.55
2023-09-09T04:35:00,mfh,37.43
2023-09-09T04:36:00,mfh,36.14
2023-09-09T04:37:00,mfh,36.11
2023-09-09T04:38:00,mfh,36.04
2023-09-09T04:39:00,mfh,36.62
2023-09-09T04:40:00,mfh,36.83
2023-09-09T04:41:00,mfh,36.78
2023-09-09T04:42:00,mfh,36.59
2023-09-09T04:43:00,mfh,36.73
2023-09-09T04:44:00,mfh,36.01
2023-09-09T04:45:00,mfh,36.00
2023-09-09T04:46:00,mfh,35.92
2023-09-09T04:47:00,mfh,35.95
2023-09-09T04:48:00,mfh,36.69
2023-09-09T04:49:00,mfh,37.61
2023-09-09T04:50:00,mfh,36.85
2023-09-09T04:51:00,mfh,36.82
2023-09-09T04:52:00,mfh,36.61
2023-09-09T04:53:00,mfh,35.88
2023-09-09T04:54:00,mfh,36.55
2023-09-09T04:55:00,mfh,35.88
2023-09-09T04:56:00,mfh,36.37
2023-09-09T04:57:00,mfh,36.37
2023-09-09T04:58:00,mfh,37.42
2023-09-09T04:59:00,mfh,36.44
2023-09-09T05:00:00,mfh,35.85
2023-09-09T05:01:00,mfh,51.97
2023-09-09T05:02:00,mfh,57.46
2023-09-09T05:03:00,mfh,57.67
2023-09-09T05:04:00,mfh,56.48
2023-09-09T05:05:00,mfh,56.55
2023-09-09T05:06:00,mfh,56.89
2023-09-09T05:07:00,mfh,56.85
2023-09-09T05:08:00,mfh,56.50
2023-09-09T05:09:00,mfh,55.83
2023-09-09T05:10:00,mfh,56.32
2023-09-09T05:11:00,mfh,55.32
2023-09-09T05:12:00,mfh,56.43
2023-09-09T05:13:00,mfh,56.07
2023-09-09T05:14:00,mfh,56.57
2023-09-09T05:15:00,mfh,57.04
2023-09-09T05:16:00,mfh,56.24
2023-09-09T05:17:00,mfh,55.43
2023-09-09T05:18:00,mfh,55.56
2023-09-09T05:19:00,mfh,55.50
2023-09-09T05:20:00,mfh,55.37
2023-09-09T05:21:00,mfh,56.02
2023-09-09T05:22:00,mfh,56.72
2023-09-09T05:23:00,mfh,56.19
2023-09-09T05:24:00,mfh,56.15
2023-09-09T05:25:00,mfh,56.01
2023-09-09T05:26:00,mfh,55.22
2023-09-09T05:27:00,mfh,55.35
2023-09-09T05:28:00,mfh,55.42
2023-09-09T05:29:00,mfh,55.99
2023-09-09T05:30:00,mfh,55.95
2023-09-09T05:31:00,mfh,56.02
2023-09-09T05:32:00,mfh,56.06
2023-09-09T05:33:00,mfh,56.22
2023-09-09T05:34:00,mfh,56.82
2023-09-09T05:35:00,mfh,57.05
2023-09-09T05:36:00,mfh,56.94
2023-09-09T05:37:00,mfh,57.23
2023-09-09T05:38:00,mfh,56.06
2023-09-09T05:39:00,mfh,56.00
2023-09-09T05:40:00,mfh,56.08
2023-09-09T05:41:00,mfh,56.09
2023-09-09T05:42:00,mfh,55.91
2023-09-09T05:43:00,mfh,55.51
2023-09-09T05:44:00,mfh,55.22
2023-09-09T05:45:00,mfh,55.05
2023-09-09T05:46:00,mfh,56.52
2023-09-09T05:47:00,mfh,56.00
2023-09-09T05:48:00,mfh,56.11
2023-09-09T05:49:00,mfh,56.18
2023-09-09T05:50:00,mfh,55.95
2023-09-09T05:51:00,mfh,55.50
2023-09-09T05:52:00,mfh,55.55
2023-09-09T05:53:00,mfh,55.40
2023-09-09T05:54:00,mfh,55.25
2023-09-09T05:55:00,mfh,56.06
2023-09-09T05:56:00,mfh,56.00
2023-09-09T05:57:00,mfh,56.12
2023-09-09T05:58:00,mfh,55.98
2023-09-09T05:59:00,mfh,54.12
2023-09-09T06:00:00,mfh,54.14
2023-09-09T06:01:00,mfh,54.21
2023-09-09T06:02:00,mfh,53.97
2023-09-09T06:03:00,mfh,55.07
2023-09-09T06:04:00,mfh,54.54
2023-09-09T06:05:00,mfh,54.80
2023-09-09T06:06:00,mfh,54.45
2023-09-09T06:07:00,mfh,54.37
2023-09-09T06:08:00,mfh,55.11
2023-09-09T06:09:00,mfh,55.31
2023-09-09T06:10:00,mfh,53.46
2023-09-09T06:11:00,mfh,54.01
2023-09-09T06:12:00,mfh,54.21
2023-09-09T06:13:00,mfh,54.63
2023-09-09T06:14:00,mfh,54.49
2023-09-09T06:15:00,mfh,54.58
2023-09-09T06:16:00,mfh,53.64
2023-09-09T06:17:00,mfh,53.50
2023-09-09T06:18:00,mfh,53.62
2023-09-09T06:19:00,mfh,53.59
2023-09-09T06:20:00,mfh,55.36
2023-09-09T06:21:00,mfh,54.44
2023-09-09T06:22:00,mfh,54.28
2023-09-09T06:23:00,mfh,54.67
2023-09-09T06:24:00,mfh,55.08
2023-09-09T06:25:00,mfh,53.72
2023-09-09T06:26:00,mfh,53.70
2023-09-09T06:27:00,mfh,53.66
2023-09-09T06:28:00,mfh,54.29
2023-09-09T06:29:00,mfh,54.58
2023-09-09T06:30:00,mfh,54.28
2023-09-09T06:31:00,mfh,54.69
2023-09-09T06:32:00,mfh,54.67
2023-09-09T06:33:00,mfh,53.81
2023-09-09T06:34:00,mfh,53.72
2023-09-09T06:35:00,mfh,53.67
2023-09-09T06:36:00,mfh,53.64
2023-09-09T06:37:00,mfh,54.37
2023-09-09T06:38:00,mfh,54.09
2023-09-09T06:39:00,mfh,54.14
2023-09-09T06:40:00,mfh,54.48
2023-09-09T06:41:00,mfh,53.86
2023-09-09T06:42:00,mfh,53.72
2023-09-09T06:43:00,mfh,53.74
2023-09-09T06:44:00,mfh,53.10
2023-09-09T06:45:00,mfh,53.68
2023-09-09T06:46:00,mfh,53.98
2023-09-09T06:47:00,mfh,53.76
2023-09-09T06:48:00,mfh,53.65
2023-09-09T06:49:00,mfh,53.84
2023-09-09T06:50:00,mfh,53.11
2023-09-09T06:51:00,mfh,52.85
2023-09-09T06:52:00,mfh,53.08
2023-09-09T06:53:00,mfh,54.15
2023-09-09T06:54:00,mfh,53.41
2023-09-09T06:55:00,mfh,53.29
2023-09-09T06:56:00,mfh,53.34
2023-09-09T06:57:00,mfh,53.44
2023-09-09T06:58:00,mfh,52.76
2023-09-09T06:59:00,mfh,52.71
2023-09-09T07:00:00,mfh,52.76
2023-09-09T07:01:00,mfh,52.75
2023-09-09T07:02:00,mfh,53.26
2023-09-09T07:03:00,mfh,53.47
2023-09-09T07:04:00,mfh,53.53
2023-09-09T07:05:00,mfh,53.36
2023-09-09T07:06:00,mfh,53.33
2023-09-09T07:07:00,mfh,52.73
2023-09-09T07:08:00,mfh,52.43
2023-09-09T07:09:00,mfh,52.12
2023-09-09T07:10:00,mfh,52.90
2023-09-09T07:11:00,mfh,52.95
2023-09-09T07:12:00,mfh,52.77
2023-09-09T07:13:00,mfh,52.83
2023-09-09T07:14:00,mfh,52.89
2023-09-09T07:15:00,mfh,52.22
2023-09-09T07:16:00,mfh,52.44
2023-09-09T07:17:00,mfh,53.89
2023-09-09T07:18:00,mfh,53.96
2023-09-09T07:19:00,mfh,52.98
2023-09-09T07:20:00,mfh,53.05
2023-09-09T07:21:00,mfh,53.09
2023-09-09T07:22:00,mfh,52.98
2023-09-09T07:23:00,mfh,53.01
2023-09-09T07:24:00,mfh,52.14
2023-09-09T07:25:00,mfh,52.37
2023-09-09T07:26:00,mfh,52.35
2023-09-09T07:27:00,mfh,52.69
2023-09-09T07:28:00,mfh,52.94
2023-09-09T07:29:00,mfh,52.89
2023-09-09T07:30:00,mfh,52.88
2023-09-09T07:31:00,mfh,52.71
2023-09-09T07:32:00,mfh,52.20
2023-09-09T07:33:00,mfh,52.19
2023-09-09T07:34:00,mfh,51.92
2023-09-09T07:35:00,mfh,52.06
2023-09-09T07:36:00,mfh,53.11
2023-09-09T07:37:00,mfh,51.90
2023-09-09T07:38:00,mfh,52.07
2023-09-09T07:39:00,mfh,52.35
2023-09-09T07:40:00,mfh,51.60
2023-09-09T07:41:00,mfh,51.74
2023-09-09T07:42:00,mfh,51.64
2023-09-09T07:43:00,mfh,52.36
2023-09-09T07:44:00,mfh,52.32
2023-09-09T07:45:00,mfh,52.40
2023-09-09T07:46:00,mfh,52.16
2023-09-09T07:47:00,mfh,52.07
2023-09-09T07:48:00,mfh,52.76
2023-09-09T07:49:00,mfh,51.55
2023-09-09T07:50:00,mfh,51.75
2023-09-09T07:51:00,mfh,51.57
2023-09-09T07:52:00,mfh,52.12
2023-09-09T07:53:00,mfh,52.07
2023-09-09T07:54:00,mfh,52.07
2023-09-09T07:55:00,mfh,52.23
2023-09-09T07:56:00,mfh,52.26
2023-09-09T07:57:00,mfh,51.42
2023-09-09T07:58:00,mfh,51.44
2023-09-09T07:59:00,mfh,51.68
2023-09-09T08:00:00,mfh,51.65
2023-09-09T08:01:00,mfh,53.27
2023-09-09T08:02:00,mfh,52.23
2023-09-09T08:03:00,mfh,53.29
2023-09-09T08:04:00,mfh,52.28
2023-09-09T08:05:00,mfh,52.39
2023-09-09T08:06:00,mfh,52.43
2023-09-09T08:07:00,mfh,52.91
2023-09-09T08:08:00,mfh,52.05
2023-09-09T08:09:00,mfh,52.28
2023-09-09T08:10:00,mfh,52.23
2023-09-09T08:11:00,mfh,52.21
2023-09-09T08:12:00,mfh,52.76
2023-09-09T08:13:00,mfh,52.98
2023-09-09T08:14:00,mfh,51.99
2023-09-09T08:15:00,mfh,51.85
2023-09-09T08:16:00,mfh,52.65
2023-09-09T08:17:00,mfh,52.18
2023-09-09T08:18:00,mfh,52.93
2023-09-09T08:19:00,mfh,53.14
2023-09-09T08:20:00,mfh,52.74
2023-09-09T08:21:00,mfh,52.44
2023-09-09T08:22:00,mfh,52.41
2023-09-09T08:23:00,mfh,52.65
2023-09-09T08:24:00,mfh,52.31
2023-09-09T08:25:00,mfh,52.50
2023-09-09T08:26:00,mfh,53.62
2023-09-09T08:27:00,mfh,53.20
2023-09-09T08:28:00,mfh,53.43
2023-09-09T08:29:00,mfh,54.72
2023-09-09T08:30:00,mfh,53.10
2023-09-09T08:31:00,mfh,56.52
2023-09-09T08:32:00,mfh,56.49
2023-09-09T08:33:00,mfh,56.29
2023-09-09T08:34:00,mfh,57.16
2023-09-09T08:35:00,mfh,57.12
2023-09-09T08:36:00,mfh,56.87
2023-09-09T08:37:00,mfh,56.52
2023-09-09T08:38:00,mfh,56.61
2023-09-09T08:39:00,mfh,56.81
2023-09-09T08:40:00,mfh,57.44
2023-09-09T08:41:00,mfh,56.79
2023-09-09T08:42:00,mfh,56.21
2023-09-09T08:43:00,mfh,56.38
2023-09-09T08:44:00,mfh,56.37
2023-09-09T08:45:00,mfh,56.95
2023-09-09T08:46:00,mfh,57.87
2023-09-09T08:47:00,mfh,58.14
2023-09-09T08:48:00,mfh,57.82
2023-09-09T08:49:00,mfh,57.59
2023-09-09T08:50:00,mfh,57.76
2023-09-09T08:51:00,mfh,57.72
2023-09-09T08:52:00,mfh,56.34
2023-09-09T08:53:00,mfh,56.41
2023-09-09T08:54:00,mfh,56.47
2023-09-09T08:55:00,mfh,57.06
2023-09-09T08:56:00,mfh,57.34
2023-09-09T08:57:00,mfh,57.39
2023-09-09T08:58:00,mfh,57.13
2023-09-09T08:59:00,mfh,57.05
2023-09-09T09:00:00,mfh,56.91
2023-09-09T09:01:00,mfh,57.31
2023-09-09T09:02:00,mfh,57.12
2023-09-09T09:03:00,mfh,56.86
2023-09-09T09:04:00,mfh,57.66
2023-09-09T09:05:00,mfh,57.62
2023-09-09T09:06:00,mfh,57.65
2023-09-09T09:07:00,mfh,57.77
2023-09-09T09:08:00,mfh,57.91
2023-09-09T09:09:00,mfh,57.66
2023-09-09T09:10:00,mfh,57.76
2023-09-09T09:11:00,mfh,57.52
2023-09-09T09:12:00,mfh,56.89
2023-09-09T09:13:00,mfh,56.77
2023-09-09T09:14:00,mfh,57.25
2023-09-09T09:15:00,mfh,57.58
2023-09-09T09:16:00,mfh,57.52
2023-09-09T09:17:00,mfh,57.55
2023-09-09T09:18:00,mfh,58.17
2023-09-09T09:19:00,mfh,57.90
2023-09-09T09:20:00,mfh,57.78
2023-09-09T09:21:00,mfh,57.62
2023-09-09T09:22:00,mfh,57.93
2023-09-09T09:23:00,mfh,56.90
2023-09-09T09:24:00,mfh,56.84
2023-09-09T09:25:00,mfh,64.85
2023-09-09T09:26:00,mfh,68.81
2023-09-09T09:27:00,mfh,68.68
2023-09-09T09:28:00,mfh,69.01
2023-09-09T09:29:00,mfh,69.31
2023-09-09T09:30:00,mfh,69.43
2023-09-09T09:31:00,mfh,69.44
2023-09-09T09:32:00,mfh,70.68
2023-09-09T09:33:00,mfh,70.40
2023-09-09T09:34:00,mfh,70.30
2023-09-09T09:35:00,mfh,70.00
2023-09-09T09:36:00,mfh,68.99
2023-09-09T09:37:00,mfh,69.19
2023-09-09T09:38:00,mfh,68.92
2023-09-09T09:39:00,mfh,64.83
2023-09-09T09:40:00,mfh,64.80
2023-09-09T09:41:00,mfh,64.82
2023-09-09T09:42:00,mfh,64.88
2023-09-09T09:43:00,mfh,61.30
2023-09-09T09:44:00,mfh,61.80
2023-09-09T09:45:00,mfh,53.07
2023-09-09T09:46:00,mfh,53.17
2023-09-09T09:47:00,mfh,53.67
2023-09-09T09:48:00,mfh,53.60
2023-09-09T09:49:00,mfh,53.48
2023-09-09T09:50:00,mfh,53.43
2023-09-09T09:51:00,mfh,53.41
2023-09-09T09:52:00,mfh,53.32
2023-09-09T09:53:00,mfh,52.74
2023-09-09T09:54:00,mfh,52.77
2023-09-09T09:55:00,mfh,53.11
2023-09-09T09:56:00,mfh,53.96
2023-09-09T09:57:00,mfh,53.69
2023-09-09T09:58:00,mfh,53.52
2023-09-09T09:59:00,mfh,53.52
2023-09-09T10:00:00,mfh,53.81
2023-09-09T10:01:00,mfh,53.45
2023-09-09T10:02:00,mfh,53.46
2023-09-09T10:03:00,mfh,52.87
2023-09-09T10:04:00,mfh,52.77
2023-09-09T10:05:00,mfh,53.13
2023-09-09T10:06:00,mfh,53.08
2023-09-09T10:07:00,mfh,53.63
2023-09-09T10:08:00,mfh,54.49
2023-09-09T10:09:00,mfh,54.47
2023-09-09T10:10:00,mfh,54.72
2023-09-09T10:11:00,mfh,54.19
2023-09-09T10:12:00,mfh,54.47
2023-09-09T10:13:00,mfh,54.81
2023-09-09T10:14:00,mfh,53.54
2023-09-09T10:15:00,mfh,53.33
2023-09-09T10:16:00,mfh,53.79
2023-09-09T10:17:00,mfh,53.68
2023-09-09T10:18:00,mfh,53.56
2023-09-09T10:19:00,mfh,53.41
2023-09-09T10:20:00,mfh,53.79
2023-09-09T10:21:00,mfh,53.59
2023-09-09T10:22:00,mfh,53.91
2023-09-09T10:23:00,mfh,53.64
2023-09-09T10:24:00,mfh,53.45
2023-09-09T10:25:00,mfh,53.15
2023-09-09T10:26:00,mfh,53.45
2023-09-09T10:27:00,mfh,53.52
2023-09-09T10:28:00,mfh,54.15
2023-09-09T10:29:00,mfh,53.80
2023-09-09T10:30:00,mfh,53.55
2023-09-09T10:31:00,mfh,54.48
2023-09-09T10:32:00,mfh,54.83
2023-09-09T10:33:00,mfh,54.72
2023-09-09T10:34:00,mfh,53.50
2023-09-09T10:35:00,mfh,53.57
2023-09-09T10:36:00,mfh,53.52
2023-09-09T10:37:00,mfh,54.04
2023-09-09T10:38:00,mfh,54.15
2023-09-09T10:39:00,mfh,54.60
2023-09-09T10:40:00,mfh,54.12
2023-09-09T10:41:00,mfh,54.18
2023-09-09T10:42:00,mfh,53.89
2023-09-09T10:43:00,mfh,54.27
2023-09-09T10:44:00,mfh,54.73
2023-09-09T10:45:00,mfh,55.81
2023-09-09T10:46:00,mfh,55.86
2023-09-09T10:47:00,mfh,54.65
2023-09-09T10:48:00,mfh,64.09
2023-09-09T10:49:00,mfh,71.59
2023-09-09T10:50:00,mfh,71.76
2023-09-09T10:51:00,mfh,72.25
2023-09-09T10:52:00,mfh,72.32
2023-09-09T10:53:00,mfh,72.26
2023-09-09T10:54:00,mfh,71.56
2023-09-09T10:55:00,mfh,71.44
2023-09-09T10:56:00,mfh,73.95
2023-09-09T10:57:00,mfh,73.08
2023-09-09T10:58:00,mfh,72.88
2023-09-09T10:59:00,mfh,73.78
2023-09-09T11:00:00,mfh,73.39
2023-09-09T11:01:00,mfh,72.69
2023-09-09T11:02:00,mfh,72.55
2023-09-09T11:03:00,mfh,72.85
2023-09-09T11:04:00,mfh,72.78
2023-09-09T11:05:00,mfh,72.37
2023-09-09T11:06:00,mfh,73.28
2023-09-09T11:07:00,mfh,73.92
2023-09-09T11:08:00,mfh,73.33
2023-09-09T11:09:00,mfh,72.96
2023-09-09T11:10:00,mfh,73.65
2023-09-09T11:11:00,mfh,73.32
2023-09-09T11:12:00,mfh,73.24
2023-09-09T11:13:00,mfh,72.81
2023-09-09T11:14:00,mfh,72.65
2023-09-09T11:15:00,mfh,71.93
2023-09-09T11:16:00,mfh,72.01
2023-09-09T11:17:00,mfh,71.83
2023-09-09T11:18:00,mfh,68.20
2023-09-09T11:19:00,mfh,68.63
2023-09-09T11:20:00,mfh,69.19
2023-09-09T11:21:00,mfh,65.42
2023-09-09T11:22:00,mfh,64.73
2023-09-09T11:23:00,mfh,61.90
2023-09-09T11:24:00,mfh,61.85
2023-09-09T11:25:00,mfh,61.39
2023-09-09T11:26:00,mfh,61.15
2023-09-09T11:27:00,mfh,60.74
2023-09-09T11:28:00,mfh,62.15
2023-09-09T11:29:00,mfh,61.38
2023-09-09T11:30:00,mfh,61.16
2023-09-09T11:31:00,mfh,61.17
2023-09-09T11:32:00,mfh,73.18
2023-09-09T11:33:00,mfh,72.94
2023-09-09T11:34:00,mfh,73.56
2023-09-09T11:35:00,mfh,73.27
2023-09-09T11:36:00,mfh,73.46
2023-09-09T11:37:00,mfh,74.40
2023-09-09T11:38:00,mfh,74.13
2023-09-09T11:39:00,mfh,74.28
2023-09-09T11:40:00,mfh,74.31
2023-09-09T11:41:00,mfh,74.67
2023-09-09T11:42:00,mfh,74.64
2023-09-09T11:43:00,mfh,74.89
2023-09-09T11:44:00,mfh,71.14
2023-09-09T11:45:00,mfh,70.06
2023-09-09T11:46:00,mfh,69.48
2023-09-09T11:47:00,mfh,69.92
2023-09-09T11:48:00,mfh,71.14
2023-09-09T11:49:00,mfh,67.43
2023-09-09T11:50:00,mfh,67.63
2023-09-09T11:51:00,mfh,68.08
2023-09-09T11:52:00,mfh,67.35
2023-09-09T11:53:00,mfh,67.56
2023-09-09T11:54:00,mfh,67.04
2023-09-09T11:55:00,mfh,65.52
2023-09-09T11:56:00,mfh,65.92
2023-09-09T11:57:00,mfh,70.16
2023-09-09T11:58:00,mfh,74.92
2023-09-09T11:59:00,mfh,74.00
2023-09-09T12:00:00,mfh,74.55
2023-09-09T12:01:00,mfh,73.92
2023-09-09T12:02:00,mfh,74.79
2023-09-09T12:03:00,mfh,75.30
2023-09-09T12:04:00,mfh,75.74
2023-09-09T12:05:00,mfh,73.99
2023-09-09T12:06:00,mfh,72.91
2023-09-09T12:07:00,mfh,73.58
2023-09-09T12:08:00,mfh,73.90
2023-09-09T12:09:00,mfh,73.90
2023-09-09T12:10:00,mfh,73.22
2023-09-09T12:11:00,mfh,73.69
2023-09-09T12:12:00,mfh,73.34
2023-09-09T12:13:00,mfh,74.50
2023-09-09T12:14:00,mfh,73.33
2023-09-09T12:15:00,mfh,73.21
2023-09-09T12:16:00,mfh,72.19
2023-09-09T12:17:00,mfh,72.21
2023-09-09T12:18:00,mfh,71.84
2023-09-09T12:19:00,mfh,72.97
2023-09-09T12:20:00,mfh,72.95
2023-09-09T12:21:00,mfh,73.77
2023-09-09T12:22:00,mfh,74.66
2023-09-09T12:23:00,mfh,73.88
2023-09-09T12:24:00,mfh,73.13
2023-09-09T12:25:00,mfh,72.93
2023-09-09T12:26:00,mfh,71.78
2023-09-09T12:27:00,mfh,72.01
2023-09-09T12:28:00,mfh,72.63
2023-09-09T12:29:00,mfh,73.19
2023-09-09T12:30:00,mfh,73.32
2023-09-09T12:31:00,mfh,72.92
2023-09-09T12:32:00,mfh,73.27
2023-09-09T12:33:00,mfh,73.55
2023-09-09T12:34:00,mfh,72.56
2023-09-09T12:35:00,mfh,74.00
2023-09-09T12:36:00,mfh,71.99
2023-09-09T12:37:00,mfh,72.64
2023-09-09T12:38:00,mfh,72.38
2023-09-09T12:39:00,mfh,73.38
2023-09-09T12:40:00,mfh,74.11
2023-09-09T12:41:00,mfh,73.29
2023-09-09T12:42:00,mfh,73.18
2023-09-09T12:43:00,mfh,74.30
2023-09-09T12:44:00,mfh,73.27
2023-09-09T12:45:00,mfh,73.88
2023-09-09T12:46:00,mfh,74.20
2023-09-09T12:47:00,mfh,72.54
2023-09-09T12:48:00,mfh,68.93
2023-09-09T12:49:00,mfh,68.32
2023-09-09T12:50:00,mfh,68.93
2023-09-09T12:51:00,mfh,68.42
2023-09-09T12:52:00,mfh,68.69
2023-09-09T12:53:00,mfh,65.14
2023-09-09T12:54:00,mfh,65.19
2023-09-09T12:55:00,mfh,61.92
2023-09-09T12:56:00,mfh,61.60
2023-09-09T12:57:00,mfh,61.09
2023-09-09T12:58:00,mfh,61.99
2023-09-09T12:59:00,mfh,61.06
2023-09-09T13:00:00,mfh,61.20
2023-09-09T13:01:00,mfh,61.74
2023-09-09T13:02:00,mfh,61.06
2023-09-09T13:03:00,mfh,62.08
2023-09-09T13:04:00,mfh,62.90
2023-09-09T13:05:00,mfh,63.57
2023-09-09T13:06:00,mfh,62.12
2023-09-09T13:07:00,mfh,61.57
2023-09-09T13:08:00,mfh,61.40
2023-09-09T13:09:00,mfh,61.84
2023-09-09T13:10:00,mfh,56.75
2023-09-09T13:11:00,mfh,56.80
2023-09-09T13:12:00,mfh,57.16
2023-09-09T13:13:00,mfh,57.30
2023-09-09T13:14:00,mfh,65.49
2023-09-09T13:15:00,mfh,65.37
2023-09-09T13:16:00,mfh,65.12
2023-09-09T13:17:00,mfh,64.17
2023-09-09T13:18:00,mfh,64.63